Location: Be?i?
(36.9044°N, 30.1006°E)
Time: 11:27:42
(UTC+00:00)

OAO 1 Rocket - Pass Details

Date: 05 August 2024
Orbit: 739 x 751 km, 35.0° (Epoch: 09 September)

Event Time Altitude Azimuth Distance (km) Brightness Sun altitude
Rises 17:47:12 0° 268° (W) 3,170 8.8 -9.0°
Reaches altitude 10° 17:49:39 10° 266° (W) 2,249 7.9 -9.4°
Maximum altitude 17:54:56 74° 182° (S) 776 4.5 -10.3°
Enters shadow 17:59:43 13° 99° (E) 2,067 6.2 -11.2°
